Regional Weather Roundup
Issued by NWS

Home | Current Version | Previous Version | Graphics & Text | Print | Product List | Glossary Off
Versions: 1 2 3 4 5 6 7 8 9 10 11 12 13 14 15 16 17 18 19 20 21 22 23 24 25 26 27 28 29 30 31 32 33 34 35 36 37 38 39 40 41 42 43 44 45 46 47 48 49 50

000
ASUS44 KFWD 251415
RWRTX
NORTH TEXAS HOURLY WEATHER ROUNDUP
NATIONAL WEATHER SERVICE FORT WORTH TX
800 AM CST SUN FEB 25 2018

NOTE: "FAIR" INDICATES FEW OR NO CLOUDS BELOW 12,000 FEET WITH NO
SIGNIFICANT WEATHER AND/OR OBSTRUCTIONS TO VISIBILITY.

TXZ118-119-251500-
DALLAS/FORT WORTH METROPLEX

CITY           SKY/WX    TMP DP  RH WIND       PRES   REMARKS
DFW AIRPORT    PTSUNNY   47  43  86 N6        30.04F
DALLAS LOVE    PTSUNNY   44  41  89 CALM      30.07S
FTW MEACHAM    FAIR      46  44  93 CALM      30.06F
DAL-EXECUTIVE  FAIR      45  42  89 CALM      30.05F
FTW-ALLIANCE   FAIR      40  39  97 CALM      30.05F
FTW-NAS-JRB    PTSUNNY   43  41  93 NW6       30.07S WCI  39
FTW-SPINKS     SUNNY     41  39  93 CALM      30.09R
ARLINGTON      FAIR      43  43 100 CALM      30.07F
GRAND PRAIRIE  SUNNY     46  43  87 CALM      30.08R
ADDISON        SUNNY     45  41  87 NE7       30.06R
MESQUITE       MOSUNNY   45  43  93 CALM      30.06S
LANCASTER      FAIR      44  42  91 N3        30.05F
$$

TXZ091>094-102>105-117-120-121-131>134-251500-
NORTH CENTRAL TEXAS

CITY           SKY/WX    TMP DP  RH WIND       PRES   REMARKS
SHRMAN/DENISON FAIR      42  40  89 SE7       30.08R WCI  38
GAINESVILLE    FAIR      34  33  96 S3        30.08R
BOWIE          FAIR      37  36  95 SE3       30.05S
BRIDGEPORT     FAIR      36  36 100 CALM      30.08R
DECATUR        FAIR      43  40  88 SE9       30.05R WCI  38
DENTON         FAIR      36  36 100 CALM      30.07R
MCKINNEY       FAIR      39  39 100 N5        30.06S WCI  36
BONHAM         FAIR      41  40  97 S3        30.10R
GREENVILLE     FAIR      45  45 100 N3        30.05F
ROCKWALL       FAIR      44  43  97 MISG      30.05F
TERRELL        FAIR      48  44  86 NE5       30.05S
CLEBURNE       FAIR      46  45  93 E7        30.05S
GRANBURY       FAIR      38  37  96 W3        30.07S
$$

TXZ083>090-098>101-113>116-127>130-139>142-154-155-251500-
WESTERN NORTH TEXAS

CITY           SKY/WX    TMP DP  RH WIND       PRES   REMARKS
WICHITA FALLS  FAIR      35  33  92 CALM      30.03R FOG
WF-KICKAPOO    FAIR      33  32  96 CALM      30.07R
VERNON         CLOUDY    32  29  90 CALM      30.03S VSB 1/2
ABILENE        FAIR      37  25  61 S6        30.03R WCI  32
ABILENE-DYESS  FAIR      31  26  82 SW5       30.03R WCI  26
GRAHAM           N/A     33  32  95 CALM      30.04R
BRECKENRIDGE   FAIR      35  30  82 S3        30.05R
CISCO          MOCLDY    43  25  49 SW6       30.03R WCI  39
EASTLAND       MOCLDY    33  31  92 CALM      30.04R
RANGER         FAIR      39  31  72 E3        30.05R
MINERAL WELLS  FAIR      35  34  96 CALM      30.04R
STEPHENVILLE   FAIR      46  42  87 CALM      30.06F
COMANCHE       FAIR      40  37  87 NE5       30.04R WCI  37
COLEMAN        CLOUDY    42  34  72 W3        30.04R
$$

TXZ143>147-156>162-174-175-251500-
CENTRAL TEXAS

CITY           SKY/WX    TMP DP  RH WIND       PRES   REMARKS
WACO           PTSUNNY   48  46  93 N6        30.02F
WACO-TSTC      MOSUNNY   48  48 100 N5        30.04S
WACO-MCGREGOR  PTSUNNY   48  47  96 NE3       30.04S
HILLSBORO      FAIR      48  46  93 NE6       30.05R
CORSICANA      CLOUDY    50  49  96 NE5       30.05S
MEXIA          CLOUDY    52  50  94 W5        30.03S
HEARNE         CLOUDY    58  48  70 NE8       30.01F
CAMERON        CLOUDY    56  51  84 NE6       30.01S
TEMPLE         CLOUDY    51  51 100 N6        30.02F
KILLEEN        CLOUDY    51  49  93 NE7       30.02R
KILLEEN-SKYLRK PTSUNNY   52  49  89 E6        30.03S
GATESVILLE     FAIR      46  45  93 CALM      30.05R
HAMILTON       CLOUDY    47  46  99 E6        30.05R
LAMPASAS       FAIR      48  45  89 N5        30.02R
$$

TXZ095>097-106>112-122>126-135>138-148>153-164>167-251500-
EAST TEXAS

CITY           SKY/WX    TMP DP  RH WIND       PRES   REMARKS
PARIS          FAIR      42  41  96 E7        30.09R WCI  38
SULPHUR SPRNGS FAIR      43  43 100 CALM      30.11R
MOUNT PLEASANT FAIR      47  47  97 NE3       30.09S
GILMER         CLOUDY    50  49  98 CALM      30.07R
MINEOLA        PTSUNNY   46  46 100 CALM      30.08R
TYLER          FAIR      53  50  89 E5        30.05R
LONGVIEW       FAIR      54  54 100 E6        30.06R
MARSHALL       FAIR      53  50  91 E3        30.09R
ATHENS         CLOUDY    48  46  93 NE3       30.03F
PALESTINE      CLOUDY    55  51  84 NE8       30.04S
JACKSONVILLE   FAIR      53  52  97 NE7       30.05F
CENTER         CLOUDY    55  51  89 E9G18     30.07S
NACOGDOCHES    CLOUDY    57  50  77 E10       30.05F
LUFKIN         LGT RAIN  56  51  84 E9        30.03F
$$

SUPPLEMENTAL OBSERVATIONS (NWS FORT WORTH AREA)

CITY           SKY/WX    TMP DP  RH WIND       PRES   REMARKS
DENISON DAM      N/A     36  34  93 E3          N/A
CADDO GRASSLND   N/A     37  36  93 W1          N/A
PAT MAYSE LAKE   N/A     39  39 100 NW1         N/A
GREENVILLE       N/A     45  43  93 NE3         N/A
CEDAR HILL       N/A     46  41  81 CALM        N/A
LBJ GRASSLAND    N/A     43  37  81 SE8         N/A  WCI  38
POSSUM KINGDOM   N/A     41  37  87 E5          N/A  WCI  38
GRANBURY         N/A     39  37  93 W2          N/A
COMANCHE         N/A     41  34  75 NE2         N/A
MCGREGOR         N/A     48  45  87 NE6         N/A
TEMPLE           N/A     54  52  94 NE9         N/A
LAKE LIMESTONE   N/A     55  52  88 E7          N/A
ATHENS           N/A     54  50  87 NE3         N/A
$$

SUPPLEMENTAL OBSERVATIONS (NWS NORMAN AREA)

CITY           SKY/WX    TMP DP  RH WIND       PRES   REMARKS
GOODLETT         N/A     29  28  96 N2        30.02R
ODELL            N/A     37  36  96 SW3       30.04R
CROWELL          N/A     35  27  73 SW3       30.03R
KNOX CITY        N/A     31  25  77 SW6       30.04S WCI  26
SEYMOUR          N/A     33  32  96 S5        30.05R WCI  29
MILLERS CREEK    N/A     34  32  93 SE3         N/A
$$

SUPPLEMENTAL OBSERVATIONS (NWS SAN ANGELO AREA)

CITY           SKY/WX    TMP DP  RH WIND       PRES   REMARKS
WEINERT          N/A     35  28  74 SW5       30.04R WCI  31
HASKELL          N/A     34  27  76 S6        30.04R WCI  28
THROCKMORTON     N/A     35  30  83 SW6       30.05R WCI  30
STAMFORD         N/A     33  29  85 S5        30.05R WCI  28
CLYDE            N/A     43  20  39 S7        30.04S WCI  39
HAMBY            N/A     34  23  64 SE3         N/A
IVIE RESERVOIR   N/A     43  39  87 W5          N/A
COLORADO BEND    N/A     48  45  87 SE3         N/A
$$

SUPPLEMENTAL OBSERVATIONS (NWS SHREVEPORT AREA)

CITY           SKY/WX    TMP DP  RH WIND       PRES   REMARKS
CLARKSVILLE      N/A     43  41  93 E3          N/A
TEXARKANA        N/A     48  45  87 E2          N/A
LINDEN           N/A     50  46  87 NE6         N/A
GILMER           N/A     52  50  93 E2          N/A
HENDERSON        N/A     55  50  82 E6          N/A
LUFKIN           N/A     57  52  82 MISG        N/A
N SABINE NF      N/A     55  52  88 MISG        N/A
S SABINE NF      N/A     54  48  82 E5          N/A
$$

SUPPLEMENTAL OBSERVATIONS ARE A COLLECTION OF AUTOMATED INSTRUMENTS
THAT ARE MAINTAINED BY A VARIETY OF FEDERAL AND STATE AGENCIES.
CERTAIN ELEMENTS...SUCH AS HUMIDITY VALUES AND SUSTAINED WIND
SPEEDS...MAY BE APPROXIMATED.





USA.gov is the U.S. government's official web portal to all federal, state and local government web resources and services.